Retour au catalogue

STARLINK-1446

ActifCommunicationsVLEO
NORAD 45663·PAYLOAD·🇺🇸 United States

Lancé Jun 4, 2020 depuis Cape Canaveral Space Force Station

Loading…

Prochains Passages (prochaines 24 heures)

TLE

FraisSource: CelesTrak SupGP

Époque: Sep 14, 2026, 22:10 UTC

1 45663C 20035G   26257.92409722 -.00005084  00000+0 -78744-4 0  2570
2 45663  53.0178 173.5737 0004012 117.2375 244.9922 15.53413832    14

Suivez STARLINK-1446 en temps réel avec AllMySat

Download on the App Store